timestamp,waterbody_station,lease,latitude,longitude,deployment_start_date,deployment_end_date,sensor,depth,mooring,Temperature_degrees Celsius,Dissolved Oxygen_percent saturation,Dissolved Oxygen_mg/L
2017-11-23T00:00:00,Sober Island Pond-Sober Island,1323.0,44.845186,-62.4662922,2017-06-24,2017-12-12,HOBO-10817399,1.0,float,7.318,,
2017-11-23T00:15:00,Sober Island Pond-Sober Island,1323.0,44.845186,-62.4662922,2017-06-24,2017-12-12,HOBO-10817399,1.0,float,7.318,,
2017-11-23T00:30:00,Sober Island Pond-Sober Island,1323.0,44.845186,-62.4662922,2017-06-24,2017-12-12,HOBO-10817399,1.0,float,7.343,,
2017-11-23T00:45:00,Sober Island Pond-Sober Island,1323.0,44.845186,-62.4662922,2017-06-24,2017-12-12,HOBO-10817399,1.0,float,7.343,,
2017-11-23T01:00:00,Sober Island Pond-Sober Island,1323.0,44.845186,-62.4662922,2017-06-24,2017-12-12,HOBO-10817399,1.0,float,7.343,,
2017-11-23T01:15:00,Sober Island Pond-Sober Island,1323.0,44.845186,-62.4662922,2017-06-24,2017-12-12,HOBO-10817399,1.0,float,7.368,,
2017-11-23T01:30:00,Sober Island Pond-Sober Island,1323.0,44.845186,-62.4662922,2017-06-24,2017-12-12,HOBO-10817399,1.0,float,7.368,,
2017-11-23T01:45:00,Sober Island Pond-Sober Island,1323.0,44.845186,-62.4662922,2017-06-24,2017-12-12,HOBO-10817399,1.0,float,7.343,,
2017-11-23T02:00:00,Sober Island Pond-Sober Island,1323.0,44.845186,-62.4662922,2017-06-24,2017-12-12,HOBO-10817399,1.0,float,7.343,,
2017-11-23T02:15:00,Sober Island Pond-Sober Island,1323.0,44.845186,-62.4662922,2017-06-24,2017-12-12,HOBO-10817399,1.0,float,7.368,,
2017-11-23T02:30:00,Sober Island Pond-Sober Island,1323.0,44.845186,-62.4662922,2017-06-24,2017-12-12,HOBO-10817399,1.0,float,7.393,,
2017-11-23T02:45:00,Sober Island Pond-Sober Island,1323.0,44.845186,-62.4662922,2017-06-24,2017-12-12,HOBO-10817399,1.0,float,7.368,,
2017-11-23T03:00:00,Sober Island Pond-Sober Island,1323.0,44.845186,-62.4662922,2017-06-24,2017-12-12,HOBO-10817399,1.0,float,7.343,,
2017-11-23T03:15:00,Sober Island Pond-Sober Island,1323.0,44.845186,-62.4662922,2017-06-24,2017-12-12,HOBO-10817399,1.0,float,7.368,,
2017-11-23T03:30:00,Sober Island Pond-Sober Island,1323.0,44.845186,-62.4662922,2017-06-24,2017-12-12,HOBO-10817399,1.0,float,7.419,,
2017-11-23T03:45:00,Sober Island Pond-Sober Island,1323.0,44.845186,-62.4662922,2017-06-24,2017-12-12,HOBO-10817399,1.0,float,7.444,,
2017-11-23T04:00:00,Sober Island Pond-Sober Island,1323.0,44.845186,-62.4662922,2017-06-24,2017-12-12,HOBO-10817399,1.0,float,7.494,,
2017-11-23T04:15:00,Sober Island Pond-Sober Island,1323.0,44.845186,-62.4662922,2017-06-24,2017-12-12,HOBO-10817399,1.0,float,7.494,,
2017-11-23T04:30:00,Sober Island Pond-Sober Island,1323.0,44.845186,-62.4662922,2017-06-24,2017-12-12,HOBO-10817399,1.0,float,7.519,,
2017-11-23T04:45:00,Sober Island Pond-Sober Island,1323.0,44.845186,-62.4662922,2017-06-24,2017-12-12,HOBO-10817399,1.0,float,7.544,,
2017-11-23T05:00:00,Sober Island Pond-Sober Island,1323.0,44.845186,-62.4662922,2017-06-24,2017-12-12,HOBO-10817399,1.0,float,7.569,,
2017-11-23T05:15:00,Sober Island Pond-Sober Island,1323.0,44.845186,-62.4662922,2017-06-24,2017-12-12,HOBO-10817399,1.0,float,7.594,,
2017-11-23T05:30:00,Sober Island Pond-Sober Island,1323.0,44.845186,-62.4662922,2017-06-24,2017-12-12,HOBO-10817399,1.0,float,7.645,,
2017-11-23T05:45:00,Sober Island Pond-Sober Island,1323.0,44.845186,-62.4662922,2017-06-24,2017-12-12,HOBO-10817399,1.0,float,7.569,,
2017-11-23T06:00:00,Sober Island Pond-Sober Island,1323.0,44.845186,-62.4662922,2017-06-24,2017-12-12,HOBO-10817399,1.0,float,7.519,,
2017-11-23T06:15:00,Sober Island Pond-Sober Island,1323.0,44.845186,-62.4662922,2017-06-24,2017-12-12,HOBO-10817399,1.0,float,7.469,,
2017-11-23T06:30:00,Sober Island Pond-Sober Island,1323.0,44.845186,-62.4662922,2017-06-24,2017-12-12,HOBO-10817399,1.0,float,7.444,,
2017-11-23T06:45:00,Sober Island Pond-Sober Island,1323.0,44.845186,-62.4662922,2017-06-24,2017-12-12,HOBO-10817399,1.0,float,7.469,,
2017-11-23T07:00:00,Sober Island Pond-Sober Island,1323.0,44.845186,-62.4662922,2017-06-24,2017-12-12,HOBO-10817399,1.0,float,7.519,,
2017-11-23T07:15:00,Sober Island Pond-Sober Island,1323.0,44.845186,-62.4662922,2017-06-24,2017-12-12,HOBO-10817399,1.0,float,7.594,,
2017-11-23T07:30:00,Sober Island Pond-Sober Island,1323.0,44.845186,-62.4662922,2017-06-24,2017-12-12,HOBO-10817399,1.0,float,7.67,,
2017-11-23T07:45:00,Sober Island Pond-Sober Island,1323.0,44.845186,-62.4662922,2017-06-24,2017-12-12,HOBO-10817399,1.0,float,7.695,,
2017-11-23T08:00:00,Sober Island Pond-Sober Island,1323.0,44.845186,-62.4662922,2017-06-24,2017-12-12,HOBO-10817399,1.0,float,7.619,,
2017-11-23T08:15:00,Sober Island Pond-Sober Island,1323.0,44.845186,-62.4662922,2017-06-24,2017-12-12,HOBO-10817399,1.0,float,7.519,,
2017-11-23T08:30:00,Sober Island Pond-Sober Island,1323.0,44.845186,-62.4662922,2017-06-24,2017-12-12,HOBO-10817399,1.0,float,7.544,,
2017-11-23T08:45:00,Sober Island Pond-Sober Island,1323.0,44.845186,-62.4662922,2017-06-24,2017-12-12,HOBO-10817399,1.0,float,7.594,,
2017-11-23T09:00:00,Sober Island Pond-Sober Island,1323.0,44.845186,-62.4662922,2017-06-24,2017-12-12,HOBO-10817399,1.0,float,7.645,,
2017-11-23T09:15:00,Sober Island Pond-Sober Island,1323.0,44.845186,-62.4662922,2017-06-24,2017-12-12,HOBO-10817399,1.0,float,7.695,,
2017-11-23T09:30:00,Sober Island Pond-Sober Island,1323.0,44.845186,-62.4662922,2017-06-24,2017-12-12,HOBO-10817399,1.0,float,7.72,,
2017-11-23T09:45:00,Sober Island Pond-Sober Island,1323.0,44.845186,-62.4662922,2017-06-24,2017-12-12,HOBO-10817399,1.0,float,7.67,,
2017-11-23T10:00:00,Sober Island Pond-Sober Island,1323.0,44.845186,-62.4662922,2017-06-24,2017-12-12,HOBO-10817399,1.0,float,7.67,,
2017-11-23T10:15:00,Sober Island Pond-Sober Island,1323.0,44.845186,-62.4662922,2017-06-24,2017-12-12,HOBO-10817399,1.0,float,7.619,,
2017-11-23T10:30:00,Sober Island Pond-Sober Island,1323.0,44.845186,-62.4662922,2017-06-24,2017-12-12,HOBO-10817399,1.0,float,7.645,,
2017-11-23T10:45:00,Sober Island Pond-Sober Island,1323.0,44.845186,-62.4662922,2017-06-24,2017-12-12,HOBO-10817399,1.0,float,7.645,,
2017-11-23T11:00:00,Sober Island Pond-Sober Island,1323.0,44.845186,-62.4662922,2017-06-24,2017-12-12,HOBO-10817399,1.0,float,7.645,,
2017-11-23T11:15:00,Sober Island Pond-Sober Island,1323.0,44.845186,-62.4662922,2017-06-24,2017-12-12,HOBO-10817399,1.0,float,7.67,,
2017-11-23T11:30:00,Sober Island Pond-Sober Island,1323.0,44.845186,-62.4662922,2017-06-24,2017-12-12,HOBO-10817399,1.0,float,7.695,,
2017-11-23T11:45:00,Sober Island Pond-Sober Island,1323.0,44.845186,-62.4662922,2017-06-24,2017-12-12,HOBO-10817399,1.0,float,7.67,,
2017-11-23T12:00:00,Sober Island Pond-Sober Island,1323.0,44.845186,-62.4662922,2017-06-24,2017-12-12,HOBO-10817399,1.0,float,7.745,,
2017-11-23T12:15:00,Sober Island Pond-Sober Island,1323.0,44.845186,-62.4662922,2017-06-24,2017-12-12,HOBO-10817399,1.0,float,7.695,,
2017-11-23T12:30:00,Sober Island Pond-Sober Island,1323.0,44.845186,-62.4662922,2017-06-24,2017-12-12,HOBO-10817399,1.0,float,7.695,,
2017-11-23T12:45:00,Sober Island Pond-Sober Island,1323.0,44.845186,-62.4662922,2017-06-24,2017-12-12,HOBO-10817399,1.0,float,7.67,,
2017-11-23T13:00:00,Sober Island Pond-Sober Island,1323.0,44.845186,-62.4662922,2017-06-24,2017-12-12,HOBO-10817399,1.0,float,7.695,,
2017-11-23T13:15:00,Sober Island Pond-Sober Island,1323.0,44.845186,-62.4662922,2017-06-24,2017-12-12,HOBO-10817399,1.0,float,7.72,,
2017-11-23T13:30:00,Sober Island Pond-Sober Island,1323.0,44.845186,-62.4662922,2017-06-24,2017-12-12,HOBO-10817399,1.0,float,7.695,,
2017-11-23T13:45:00,Sober Island Pond-Sober Island,1323.0,44.845186,-62.4662922,2017-06-24,2017-12-12,HOBO-10817399,1.0,float,7.695,,
2017-11-23T14:00:00,Sober Island Pond-Sober Island,1323.0,44.845186,-62.4662922,2017-06-24,2017-12-12,HOBO-10817399,1.0,float,7.67,,
2017-11-23T14:15:00,Sober Island Pond-Sober Island,1323.0,44.845186,-62.4662922,2017-06-24,2017-12-12,HOBO-10817399,1.0,float,7.67,,
2017-11-23T14:30:00,Sober Island Pond-Sober Island,1323.0,44.845186,-62.4662922,2017-06-24,2017-12-12,HOBO-10817399,1.0,float,7.67,,
2017-11-23T14:45:00,Sober Island Pond-Sober Island,1323.0,44.845186,-62.4662922,2017-06-24,2017-12-12,HOBO-10817399,1.0,float,7.695,,
2017-11-23T15:00:00,Sober Island Pond-Sober Island,1323.0,44.845186,-62.4662922,2017-06-24,2017-12-12,HOBO-10817399,1.0,float,7.67,,
2017-11-23T15:15:00,Sober Island Pond-Sober Island,1323.0,44.845186,-62.4662922,2017-06-24,2017-12-12,HOBO-10817399,1.0,float,7.67,,
2017-11-23T15:30:00,Sober Island Pond-Sober Island,1323.0,44.845186,-62.4662922,2017-06-24,2017-12-12,HOBO-10817399,1.0,float,7.645,,
2017-11-23T15:45:00,Sober Island Pond-Sober Island,1323.0,44.845186,-62.4662922,2017-06-24,2017-12-12,HOBO-10817399,1.0,float,7.645,,
2017-11-23T16:00:00,Sober Island Pond-Sober Island,1323.0,44.845186,-62.4662922,2017-06-24,2017-12-12,HOBO-10817399,1.0,float,7.645,,
2017-11-23T16:15:00,Sober Island Pond-Sober Island,1323.0,44.845186,-62.4662922,2017-06-24,2017-12-12,HOBO-10817399,1.0,float,7.645,,
2017-11-23T16:30:00,Sober Island Pond-Sober Island,1323.0,44.845186,-62.4662922,2017-06-24,2017-12-12,HOBO-10817399,1.0,float,7.92,,
2017-11-23T16:45:00,Sober Island Pond-Sober Island,1323.0,44.845186,-62.4662922,2017-06-24,2017-12-12,HOBO-10817399,1.0,float,7.745,,
2017-11-23T17:00:00,Sober Island Pond-Sober Island,1323.0,44.845186,-62.4662922,2017-06-24,2017-12-12,HOBO-10817399,1.0,float,7.695,,
2017-11-23T17:15:00,Sober Island Pond-Sober Island,1323.0,44.845186,-62.4662922,2017-06-24,2017-12-12,HOBO-10817399,1.0,float,7.695,,
2017-11-23T17:30:00,Sober Island Pond-Sober Island,1323.0,44.845186,-62.4662922,2017-06-24,2017-12-12,HOBO-10817399,1.0,float,7.945,,
2017-11-23T17:45:00,Sober Island Pond-Sober Island,1323.0,44.845186,-62.4662922,2017-06-24,2017-12-12,HOBO-10817399,1.0,float,7.695,,
2017-11-23T18:00:00,Sober Island Pond-Sober Island,1323.0,44.845186,-62.4662922,2017-06-24,2017-12-12,HOBO-10817399,1.0,float,7.77,,
2017-11-23T18:15:00,Sober Island Pond-Sober Island,1323.0,44.845186,-62.4662922,2017-06-24,2017-12-12,HOBO-10817399,1.0,float,7.82,,
2017-11-23T18:30:00,Sober Island Pond-Sober Island,1323.0,44.845186,-62.4662922,2017-06-24,2017-12-12,HOBO-10817399,1.0,float,7.82,,
2017-11-23T18:45:00,Sober Island Pond-Sober Island,1323.0,44.845186,-62.4662922,2017-06-24,2017-12-12,HOBO-10817399,1.0,float,7.82,,
2017-11-23T19:00:00,Sober Island Pond-Sober Island,1323.0,44.845186,-62.4662922,2017-06-24,2017-12-12,HOBO-10817399,1.0,float,7.77,,
2017-11-23T19:15:00,Sober Island Pond-Sober Island,1323.0,44.845186,-62.4662922,2017-06-24,2017-12-12,HOBO-10817399,1.0,float,7.72,,
2017-11-23T19:30:00,Sober Island Pond-Sober Island,1323.0,44.845186,-62.4662922,2017-06-24,2017-12-12,HOBO-10817399,1.0,float,7.695,,
2017-11-23T19:45:00,Sober Island Pond-Sober Island,1323.0,44.845186,-62.4662922,2017-06-24,2017-12-12,HOBO-10817399,1.0,float,7.645,,
2017-11-23T20:00:00,Sober Island Pond-Sober Island,1323.0,44.845186,-62.4662922,2017-06-24,2017-12-12,HOBO-10817399,1.0,float,7.619,,
2017-11-23T20:15:00,Sober Island Pond-Sober Island,1323.0,44.845186,-62.4662922,2017-06-24,2017-12-12,HOBO-10817399,1.0,float,7.594,,
2017-11-23T20:30:00,Sober Island Pond-Sober Island,1323.0,44.845186,-62.4662922,2017-06-24,2017-12-12,HOBO-10817399,1.0,float,7.569,,
2017-11-23T20:45:00,Sober Island Pond-Sober Island,1323.0,44.845186,-62.4662922,2017-06-24,2017-12-12,HOBO-10817399,1.0,float,7.569,,
2017-11-23T21:00:00,Sober Island Pond-Sober Island,1323.0,44.845186,-62.4662922,2017-06-24,2017-12-12,HOBO-10817399,1.0,float,7.544,,
2017-11-23T21:15:00,Sober Island Pond-Sober Island,1323.0,44.845186,-62.4662922,2017-06-24,2017-12-12,HOBO-10817399,1.0,float,7.519,,
2017-11-23T21:30:00,Sober Island Pond-Sober Island,1323.0,44.845186,-62.4662922,2017-06-24,2017-12-12,HOBO-10817399,1.0,float,7.494,,
2017-11-23T21:45:00,Sober Island Pond-Sober Island,1323.0,44.845186,-62.4662922,2017-06-24,2017-12-12,HOBO-10817399,1.0,float,7.444,,
2017-11-23T22:00:00,Sober Island Pond-Sober Island,1323.0,44.845186,-62.4662922,2017-06-24,2017-12-12,HOBO-10817399,1.0,float,7.444,,
2017-11-23T22:15:00,Sober Island Pond-Sober Island,1323.0,44.845186,-62.4662922,2017-06-24,2017-12-12,HOBO-10817399,1.0,float,7.444,,
2017-11-23T22:30:00,Sober Island Pond-Sober Island,1323.0,44.845186,-62.4662922,2017-06-24,2017-12-12,HOBO-10817399,1.0,float,7.444,,
2017-11-23T22:45:00,Sober Island Pond-Sober Island,1323.0,44.845186,-62.4662922,2017-06-24,2017-12-12,HOBO-10817399,1.0,float,7.444,,
2017-11-23T23:00:00,Sober Island Pond-Sober Island,1323.0,44.845186,-62.4662922,2017-06-24,2017-12-12,HOBO-10817399,1.0,float,7.419,,
2017-11-23T23:15:00,Sober Island Pond-Sober Island,1323.0,44.845186,-62.4662922,2017-06-24,2017-12-12,HOBO-10817399,1.0,float,7.419,,
2017-11-23T23:30:00,Sober Island Pond-Sober Island,1323.0,44.845186,-62.4662922,2017-06-24,2017-12-12,HOBO-10817399,1.0,float,7.393,,
2017-11-23T23:45:00,Sober Island Pond-Sober Island,1323.0,44.845186,-62.4662922,2017-06-24,2017-12-12,HOBO-10817399,1.0,float,7.368,,
